Location: Darlington Observatory
(36.4817°N, 105.8156°W)
Time: 15:42:16
(UTC-06:00)

NOSS 3-3 (A) - Visible Passes

Search period start: 23 April 2017 00:00
Search period end: 03 May 2017 00:00
Orbit: 912 x 1301 km, 63.4° (Epoch: 08 April)

Date Brightness Start Highest point End Pass type
(mag) Time Alt. Az. Time Alt. Az. Time Alt. Az.
23 Apr 7.2 21:25:11 10° W 21:26:31 10° WSW 21:27:51 10° WSW visible
24 Apr 6.8 20:37:03 10° WNW 20:42:14 20° WSW 20:47:35 10° SSW visible
27 Apr 7.1 20:15:12 10° WNW 20:18:45 14° WSW 20:22:23 10° SW visible
